EW6851 Weather Reports


time (UTC)temp
C
wind
direction
speed
KPH
gust
KPH
rain 1hr
cm
rain 24hr
cm
rain mn
cm
humidity
%
barometer
mb
20260507103158 23 51 20.9 43.5 0.00 0.00 0.00 31 1010.2
20260507102658 23 153 8.0 32.2 0.00 0.00 0.00 31 1010.2
20260507102158 23 78 3.2 29.0 0.00 0.00 0.00 30 1010.0
20260507101658 23 148 20.9 24.1 0.00 0.00 0.00 30 1010.2
20260507101204 23 107 3.2 22.5 0.00 0.00 0.00 30 1010.1
20260507100707 23 102 16.1 38.6 0.00 0.00 0.00 30 1010.1
20260507100204 23 76 12.9 33.8 0.00 0.00 0.00 30 1010.3
20260507095658 23 128 12.9 51.5 0.00 0.00 0.00 30 1010.6
20260507095158 23 68 16.1 35.4 0.00 0.00 0.00 30 1010.5
20260507094701 23 65 14.5 38.6 0.00 0.00 0.00 29 1010.5
20260507094158 23 96 25.7 35.4 0.00 0.00 0.00 29 1010.8
20260507093658 23 83 24.1 38.6 0.00 0.00 0.00 29 1010.5
20260507093158 23 73 22.5 35.4 0.00 0.00 0.00 31 1010.5
20260507092658 23 80 24.1 40.2 0.00 0.00 0.00 31 1010.4
20260507092158 23 84 20.9 30.6 0.00 0.00 0.00 32 1010.5
20260507091658 23 133 12.9 41.8 0.00 0.00 0.00 32 1010.7
20260507091201 23 72 6.4 24.1 0.00 0.00 0.00 34 1010.6
20260507090658 22 123 6.4 27.4 0.00 0.00 0.00 34 1010.5
20260507090158 22 125 14.5 43.5 0.00 0.00 0.00 33 1010.6
20260507085658 22 55 16.1 38.6 0.00 0.00 0.00 34 1010.6
20260507085205 22 99 32.2 35.4 0.00 0.00 0.00 34 1010.6
20260507084701 22 96 27.4 37.0 0.00 0.00 0.00 35 1010.8
20260507084158 22 124 14.5 45.1 0.00 0.00 0.00 35 1010.8
20260507083658 22 87 12.9 54.7 0.00 0.00 0.00 38 1010.7
20260507083201 22 85 33.8 53.1 0.00 0.00 0.00 38 1010.8
20260507082701 22 87 17.7 35.4 0.00 0.00 0.00 39 1011.0
20260507082201 22 63 11.3 40.2 0.00 0.00 0.00 38 1010.8
20260507081658 22 128 11.3 33.8 0.00 0.00 0.00 40 1010.8
20260507081201 22 54 16.1 35.4 0.00 0.00 0.00 41 1010.9
20260507080704 22 183 1.6 35.4 0.00 0.00 0.00 40 1010.9
20260507080158 22 213 11.3 37.0 0.00 0.00 0.00 41 1011.1
20260507075704 22 113 11.3 25.7 0.00 0.00 0.00 43 1011.2
20260507075201 22 65 3.2 20.9 0.00 0.00 0.00 43 1011.2
20260507074658 22 112 14.5 29.0 0.00 0.00 0.00 42 1011.3
20260507074201 22 176 3.2 14.5 0.00 0.00 0.00 44 1011.4
20260507073658 21 128 12.9 22.5 0.00 0.00 0.00 45 1011.5
20260507073202 21 13 4.8 16.1 0.00 0.00 0.00 45 1011.6
20260507072658 21 115 14.5 20.9 0.00 0.00 0.00 44 1011.6
20260507072158 21 103 4.8 20.9 0.00 0.00 0.00 43 1011.7
20260507071701 21 24 11.3 29.0 0.00 0.00 0.00 45 1011.8
20260507071202 21 324 6.4 29.0 0.00 0.00 0.00 45 1011.8
20260507070659 21 177 1.6 19.3 0.00 0.00 0.00 46 1011.8
20260507070158 20 170 9.7 25.7 0.00 0.00 0.00 50 1011.8
20260507065701 20 122 4.8 20.9 0.00 0.00 0.00 46 1011.8
20260507065202 20 52 3.2 19.3 0.00 0.00 0.00 48 1011.8
20260507064701 20 89 22.5 25.7 0.00 0.00 0.00 46 1011.8
20260507064201 20 63 6.4 20.9 0.00 0.00 0.00 48 1011.9
20260507063659 20 56 6.4 25.7 0.00 0.00 0.00 50 1011.8
20260507063201 20 82 16.1 16.1 0.00 0.00 0.00 49 1011.8
20260507062659 20 44 6.4 9.7 0.00 0.00 0.00 51 1011.9
20260507062159 20 107 0.0 12.9 0.00 0.00 0.00 51 1012.0
20260507061701 20 91 9.7 11.3 0.00 0.00 0.00 48 1012.0
20260507061158 20 109 3.2 8.0 0.00 0.00 0.00 48 1012.0
20260507060659 19 338 0.0 0.0 0.00 0.00 0.00 48 1011.9
20260507060202 19 338 0.0 0.0 0.00 0.00 0.00 48 1012.1
20260507055658 19 47 0.0 0.0 0.00 0.00 0.00 48 1012.2
20260507055159 19 47 0.0 0.0 0.00 0.00 0.00 48 1012.1
20260507054702 19 281 0.0 1.6 0.00 0.00 0.00 48 1012.0
20260507054202 19 270 0.0 6.4 0.00 0.00 0.00 46 1012.0
20260507053659 19 286 4.8 8.0 0.00 0.00 0.00 46 1012.1
20260507053158 18 179 0.0 0.0 0.00 0.00 0.00 45 1012.2
20260507052702 18 178 0.0 4.8 0.00 0.00 0.00 45 1012.0
20260507052159 19 186 3.2 6.4 0.00 0.00 0.00 45 1011.9
20260507051702 18 96 0.0 3.2 0.00 0.00 0.00 44 1011.9
20260507051208 18 113 0.0 3.2 0.00 0.00 0.00 46 1012.0
20260507050702 18 107 0.0 3.2 0.00 0.00 0.00 45 1012.0
20260507050202 18 106 1.6 3.2 0.00 0.00 0.00 45 1012.0
20260507045659 18 187 1.6 4.8 0.00 0.00 0.00 44 1011.9
20260507045202 18 96 1.6 6.4 0.00 0.00 0.00 44 1011.9
20260507044702 18 230 3.2 6.4 0.00 0.00 0.00 44 1011.9
20260507044202 18 221 4.8 4.8 0.00 0.00 0.00 44 1012.0
20260507043659 18 240 0.0 1.6 0.00 0.00 0.00 43 1011.9
20260507043159 18 204 0.0 6.4 0.00 0.00 0.00 44 1011.9
20260507042659 18 84 0.0 4.8 0.00 0.00 0.00 46 1011.8
20260507042202 18 142 0.0 3.2 0.00 0.00 0.00 49 1011.9
20260507041659 18 142 1.6 1.6 0.00 0.00 0.00 48 1012.0
20260507041159 18 142 0.0 1.6 0.00 0.00 0.00 48 1011.9
20260507040659 18 142 0.0 6.4 0.00 0.00 0.00 48 1011.8
20260507040159 18 131 4.8 6.4 0.00 0.00 0.00 47 1012.0
20260507035702 18 155 0.0 3.2 0.00 0.00 0.00 45 1012.0
20260507035202 18 246 1.6 4.8 0.00 0.00 0.00 44 1012.2
20260507034659 18 246 3.2 4.8 0.00 0.00 0.00 46 1012.1
20260507034159 18 246 3.2 6.4 0.00 0.00 0.00 46 1012.1
20260507033659 18 225 3.2 4.8 0.00 0.00 0.00 47 1012.1
20260507033159 18 242 1.6 6.4 0.00 0.00 0.00 48 1011.9
20260507032702 18 197 0.0 0.0 0.00 0.00 0.00 48 1011.8
20260507032202 18 197 0.0 3.2 0.00 0.00 0.00 48 1011.8
20260507031705 18 198 0.0 4.8 0.00 0.00 0.00 47 1011.9
20260507031159 18 248 0.0 4.8 0.00 0.00 0.00 46 1011.9
20260507030659 18 150 1.6 4.8 0.00 0.00 0.00 46 1012.1
20260507030205 18 184 0.0 3.2 0.00 0.00 0.00 47 1012.0
20260507025659 18 184 1.6 6.4 0.00 0.00 0.00 48 1012.1
20260507025202 18 110 0.0 6.4 0.00 0.00 0.00 47 1012.0
20260507024705 18 134 1.6 6.4 0.00 0.00 0.00 48 1012.0
20260507024205 19 117 4.8 8.0 0.00 0.00 0.00 47 1012.2
20260507023659 19 171 0.0 9.7 0.00 0.00 0.00 46 1012.1
20260507023205 20 128 0.0 4.8 0.00 0.00 0.00 44 1012.3
20260507022659 20 142 0.0 4.8 0.00 0.00 0.00 43 1012.1
20260507022202 20 218 0.0 0.0 0.00 0.00 0.00 42 1012.1
20260507021659 20 217 0.0 0.0 0.00 0.00 0.00 41 1012.0
20260507021202 20 218 0.0 9.7 0.00 0.00 0.00 41 1012.0
20260507020702 20 200 0.0 8.0 0.00 0.00 0.00 41 1012.0
20260507020156 20 221 3.2 11.3 0.00 0.00 0.00 41 1012.1
20260507015656 20 273 0.0 4.8 0.00 0.00 0.00 42 1012.1
20260507015156 20 273 0.0 1.6 0.00 0.00 0.00 42 1012.0
20260507014659 20 273 0.0 6.4 0.00 0.00 0.00 43 1012.2
20260507014156 20 355 0.0 3.2 0.00 0.00 0.00 43 1012.0
20260507013656 20 44 1.6 4.8 0.00 0.00 0.00 42 1012.0
20260507013156 20 5 0.0 3.2 0.00 0.00 0.00 43 1012.0
20260507012659 20 5 0.0 6.4 0.00 0.00 0.00 43 1011.7
20260507012202 20 355 6.4 9.7 0.00 0.00 0.00 43 1011.4
20260507011656 20 36 0.0 0.0 0.00 0.00 0.00 43 1011.8
20260507011156 20 320 0.0 3.2 0.00 0.00 0.00 43 1012.1
20260507010702 20 254 1.6 4.8 0.00 0.00 0.00 43 1012.1
20260507010159 20 270 0.0 6.4 0.00 0.00 0.00 43 1012.1
20260507005702 20 221 3.2 8.0 0.00 0.00 0.00 43 1012.0
20260507005159 20 234 0.0 4.8 0.00 0.00 0.00 44 1011.8
20260507004656 20 275 1.6 6.4 0.00 0.00 0.00 44 1011.9
20260507004203 20 295 6.4 6.4 0.00 0.00 0.00 44 1012.0
20260507003657 20 11 0.0 0.0 0.00 0.00 0.00 43 1012.0
20260507003156 20 312 0.0 0.0 0.00 0.00 0.00 43 1011.8
20260507002659 20 312 0.0 0.0 0.00 0.00 0.00 43 1012.0
20260507002157 20 5 0.0 0.0 0.00 0.00 0.00 43 1011.9
20260507001659 20 276 0.0 1.6 0.00 0.00 0.00 43 1012.0
20260507001159 20 355 0.0 0.0 0.00 0.00 0.00 43 1012.1
20260507000656 20 292 0.0 0.0 0.00 0.00 0.00 43 1012.2
20260507000159 20 128 0.0 4.8 0.00 0.00 0.00 42 1012.2
20260506235657 20 173 0.0 8.0 0.00 0.00 0.00 43 1012.2
20260506235159 20 186 4.8 14.5 0.00 0.00 0.00 42 1012.2
20260506234656 20 188 8.0 16.1 0.00 0.00 0.00 42 1012.3
20260506234159 20 202 9.7 14.5 0.00 0.00 0.00 41 1012.2
20260506233700 21 219 8.0 20.9 0.00 0.00 0.00 40 1012.3
20260506233156 21 179 16.1 22.5 0.00 0.00 0.00 39 1012.3
20260506232656 21 200 22.5 22.5 0.00 0.00 0.00 39 1012.4
20260506232157 21 196 19.3 19.3 0.00 0.00 0.00 39 1012.4
20260506231700 21 199 17.7 22.5 0.00 0.00 0.00 37 1012.4
20260506231156 21 169 11.3 25.7 0.00 0.00 0.00 37 1012.3
20260506230656 21 197 16.1 29.0 0.00 0.00 0.00 38 1012.2
20260506230200 21 202 11.3 29.0 0.00 0.00 0.00 39 1012.2
20260506225656 21 188 20.9 32.2 0.00 0.00 0.00 39 1012.1
20260506225157 21 200 19.3 32.2 0.00 0.00 0.00 40 1012.0
20260506224657 21 186 19.3 30.6 0.00 0.00 0.00 38 1012.0
20260506224157 21 155 12.9 30.6 0.00 0.00 0.00 38 1011.9
20260506223656 21 213 11.3 33.8 0.00 0.00 0.00 41 1012.1
20260506223156 21 163 8.0 25.7 0.00 0.00 0.00 42 1012.0
20260506222657 20 83 11.3 24.1 0.00 0.00 0.00 43 1012.0
20260506222200 20 218 0.0 3.2 0.00 0.00 0.00 42 1012.2
20260506221657 20 109 3.2 14.5 0.00 0.00 0.00 41 1012.2
20260506221157 20 126 4.8 17.7 0.00 0.00 0.00 43 1012.1
20260506220657 20 189 4.8 12.9 0.00 0.00 0.00 41 1012.1
20260506220200 20 182 4.8 16.1 0.00 0.00 0.00 42 1012.0
20260506215700 20 147 8.0 11.3 0.00 0.00 0.00 46 1012.1
20260506215200 20 248 6.4 6.4 0.00 0.00 0.00 47 1011.9
20260506214657 20 118 0.0 8.0 0.00 0.00 0.00 47 1011.9
20260506214200 19 119 8.0 9.7 0.00 0.00 0.00 47 1012.1
20260506213703 19 180 1.6 4.8 0.00 0.00 0.00 50 1012.2
20260506213157 19 175 3.2 4.8 0.00 0.00 0.00 50 1012.0
20260506212657 19 157 0.0 8.0 0.00 0.00 0.00 50 1012.0
20260506212157 20 190 3.2 8.0 0.00 0.00 0.00 50 1011.9
20260506211657 20 236 3.2 8.0 0.00 0.00 0.00 49 1011.8
20260506211157 20 235 4.8 8.0 0.00 0.00 0.00 48 1011.5
20260506210700 20 101 0.0 1.6 0.00 0.00 0.00 48 1011.2
20260506210157 20 101 0.0 3.2 0.00 0.00 0.00 47 1011.2
20260506205700 20 101 0.0 8.0 0.00 0.00 0.00 46 1011.2
20260506205200 20 150 3.2 4.8 0.00 0.00 0.00 47 1011.6
20260506204657 20 151 4.8 4.8 0.00 0.00 0.00 47 1011.8
20260506204157 20 208 3.2 8.0 0.00 0.00 0.00 46 1011.7
20260506203657 20 254 1.6 6.4 0.00 0.00 0.00 50 1011.9
20260506203157 20 284 0.0 6.4 0.00 0.00 0.00 53 1012.0
20260506202657 20 278 4.8 6.4 0.00 0.00 0.00 53 1011.9
20260506202200 20 314 0.0 0.0 0.00 0.00 0.00 53 1011.9
20260506201700 20 72 0.0 0.0 0.00 0.00 0.00 54 1012.0
20260506201157 20 72 0.0 3.2 0.00 0.00 0.00 54 1012.1
20260506200657 20 72 1.6 4.8 0.00 0.00 0.00 56 1012.3
20260506200200 20 142 4.8 6.4 0.00 0.00 0.00 55 1012.4
20260506195700 20 100 1.6 4.8 0.00 0.00 0.00 54 1012.4
20260506195157 20 109 1.6 4.8 0.00 0.00 0.00 45 1012.5
20260506194657 20 263 3.2 6.4 0.00 0.00 0.00 42 1012.7
20260506194203 20 355 0.0 6.4 0.00 0.00 0.00 54 1012.7
20260506193657 20 180 0.0 4.8 0.00 0.00 0.00 56 1012.7
20260506193203 20 148 4.8 4.8 0.00 0.00 0.00 56 1012.7
20260506192657 20 136 0.0 3.2 0.00 0.00 0.00 56 1012.5
20260506192157 20 171 0.0 4.8 0.00 0.00 0.00 54 1012.4
20260506191657 20 177 3.2 8.0 0.00 0.00 0.00 48 1012.6
20260506191157 20 181 1.6 9.7 0.00 0.00 0.00 43 1012.7
20260506190657 20 168 1.6 12.9 0.00 0.00 0.00 37 1012.7
20260506190158 20 178 11.3 14.5 0.00 0.00 0.00 41 1012.8
20260506185657 20 192 9.7 11.3 0.00 0.00 0.00 43 1012.8
20260506185207 20 169 8.0 12.9 0.00 0.00 0.00 44 1012.8
20260506184657 20 143 6.4 12.9 0.00 0.00 0.00 47 1012.8
20260506184157 20 157 3.2 14.5 0.00 0.00 0.00 50 1012.8
20260506183657 21 198 6.4 11.3 0.00 0.00 0.00 51 1012.8
20260506183157 21 186 4.8 11.3 0.00 0.00 0.00 52 1012.8
20260506182657 21 148 1.6 17.7 0.00 0.00 0.00 52 1012.8
20260506182203 21 211 9.7 17.7 0.00 0.00 0.00 52 1012.7
20260506181657 21 215 9.7 17.7 0.00 0.00 0.00 53 1012.7
20260506181200 21 216 6.4 9.7 0.00 0.00 0.00 57 1012.8
20260506180657 21 229 1.6 8.0 0.00 0.00 0.00 61 1012.8
20260506180200 21 229 0.0 4.8 0.00 0.00 0.00 61 1012.8
20260506175700 21 204 0.0 6.4 0.00 0.00 0.00 62 1012.7
20260506175157 21 256 0.0 4.8 0.00 0.00 0.00 62 1012.7
20260506174657 21 254 3.2 4.8 0.00 0.00 0.00 61 1012.7
20260506174200 21 229 4.8 6.4 0.00 0.00 0.00 61 1012.7
20260506173703 21 248 0.0 6.4 0.00 0.00 0.00 61 1012.5
20260506173206 21 261 4.8 6.4 0.00 0.00 0.00 61 1012.4
20260506172700 21 215 3.2 8.0 0.00 0.00 0.00 61 1012.4
20260506172200 21 263 1.6 6.4 0.00 0.00 0.00 61 1012.4
20260506171657 21 229 1.6 9.7 0.00 0.00 0.00 61 1012.5
20260506171203 21 213 4.8 9.7 0.00 0.00 0.00 62 1012.5
20260506170703 21 205 8.0 9.7 0.00 0.00 0.00 61 1012.5
20260506170157 21 259 1.6 8.0 0.00 0.00 0.00 62 1012.5
20260506165657 21 202 3.2 9.7 0.00 0.00 0.00 62 1012.7
20260506165203 21 220 6.4 11.3 0.00 0.00 0.00 62 1012.7
20260506164657 21 258 3.2 12.9 0.00 0.00 0.00 63 1012.8
20260506164200 21 333 4.8 11.3 0.00 0.00 0.00 63 1012.9
20260506163658 21 221 8.0 12.9 0.00 0.00 0.00 64 1012.9
20260506163206 21 250 12.9 12.9 0.00 0.00 0.00 63 1012.9
20260506162700 21 246 6.4 14.5 0.00 0.00 0.00 63 1012.8
20260506162157 21 238 9.7 14.5 0.00 0.00 0.00 65 1012.8
20260506161700 21 264 9.7 14.5 0.00 0.00 0.00 67 1012.8
20260506161157 21 264 6.4 12.9 0.00 0.00 0.00 69 1012.9
20260506160700 21 284 8.0 14.5 0.00 0.00 0.00 70 1013.0
20260506160200 21 213 11.3 14.5 0.00 0.00 0.00 70 1012.9
20260506155701 21 220 9.7 14.5 0.00 0.00 0.00 71 1013.0
20260506155200 21 236 8.0 16.1 0.00 0.00 0.00 70 1012.9
20260506154657 22 244 11.3 16.1 0.00 0.00 0.00 68 1012.9
20260506154203 22 228 14.5 17.7 0.00 0.00 0.00 65 1012.8
20260506153700 23 234 14.5 17.7 0.00 0.00 0.00 59 1012.7
20260506153157 23 202 8.0 16.1 0.00 0.00 0.00 51 1012.6
20260506152657 23 193 9.7 24.1 0.00 0.00 0.00 48 1012.4
20260506152203 23 172 8.0 25.7 0.00 0.00 0.00 47 1012.4
20260506151700 23 195 11.3 30.6 0.00 0.00 0.00 42 1012.4
20260506151203 24 174 8.0 17.7 0.00 0.00 0.00 40 1012.3
20260506150700 24 177 11.3 14.5 0.00 0.00 0.00 39 1012.2
20260506150206 24 182 11.3 14.5 0.00 0.00 0.00 43 1012.2
20260506145657 23 225 8.0 20.9 0.00 0.00 0.00 47 1012.2
20260506145157 24 227 16.1 25.7 0.00 0.00 0.00 46 1012.3
20260506144703 24 243 8.0 27.4 0.00 0.00 0.00 45 1012.2
20260506144157 24 192 17.7 22.5 0.00 0.00 0.00 46 1012.2
20260506143657 24 166 9.7 27.4 0.00 0.00 0.00 45 1012.2
20260506143157 25 230 16.1 29.0 0.00 0.00 0.00 45 1012.3
20260506142657 25 204 16.1 27.4 0.00 0.00 0.00 45 1012.2
20260506142200 25 223 12.9 25.7 0.00 0.00 0.00 47 1012.1
20260506141700 25 238 11.3 24.1 0.00 0.00 0.00 43 1012.0
20260506141206 25 211 4.8 22.5 0.00 0.00 0.00 41 1011.8
20260506140703 25 197 11.3 25.7 0.00 0.00 0.00 42 1011.7
20260506140200 25 191 9.7 24.1 0.00 0.00 0.00 44 1011.6
20260506135700 25 188 11.3 22.5 0.00 0.00 0.00 43 1011.5
20260506135200 25 227 11.3 25.7 0.00 0.00 0.00 39 1011.8
20260506134700 26 252 17.7 27.4 0.00 0.00 0.00 40 1011.9
20260506134158 26 210 19.3 25.7 0.00 0.00 0.00 40 1012.0
20260506133657 26 211 9.7 24.1 0.00 0.00 0.00 39 1012.0
20260506133157 26 254 8.0 27.4 0.00 0.00 0.00 39 1012.0
20260506132706 26 204 9.7 24.1 0.00 0.00 0.00 37 1011.9
20260506132157 26 175 16.1 20.9 0.00 0.00 0.00 36 1011.9
20260506131706 26 160 1.6 19.3 0.00 0.00 0.00 36 1011.9
20260506131157 26 151 4.8 27.4 0.00 0.00 0.00 37 1012.0
20260506130703 26 166 8.0 19.3 0.00 0.00 0.00 37 1012.0
20260506130157 26 139 14.5 24.1 0.00 0.00 0.00 37 1012.1
20260506125701 27 155 4.8 24.1 0.00 0.00 0.00 41 1012.2
20260506125157 27 203 9.7 14.5 0.00 0.00 0.00 41 1012.3
20260506124657 26 211 9.7 25.7 0.00 0.00 0.00 40 1012.3
20260506124157 27 208 14.5 24.1 0.00 0.00 0.00 39 1012.3
20260506123700 27 137 14.5 19.3 0.00 0.00 0.00 41 1012.4
20260506123203 27 217 12.9 17.7 0.00 0.00 0.00 41 1012.4
20260506122657 27 236 6.4 19.3 0.00 0.00 0.00 42 1012.4
20260506122157 27 118 0.0 6.4 0.00 0.00 0.00 44 1012.3
20260506121657 26 26 0.0 12.9 0.00 0.00 0.00 45 1012.3
20260506121157 26 26 6.4 14.5 0.00 0.00 0.00 46 1012.3
20260506120703 26 329 8.0 9.7 0.00 0.00 0.00 47 1012.3
20260506120157 26 314 6.4 16.1 0.00 0.00 0.00 47 1012.4
20260506115657 26 297 6.4 16.1 0.00 0.00 0.00 49 1012.4
20260506115203 26 17 6.4 14.5 0.00 0.00 0.00 48 1012.6
20260506114657 26 69 12.9 12.9 0.00 0.00 0.00 48 1012.7
20260506114203 25 65 11.3 16.1 0.00 0.00 0.00 48 1012.7
20260506113700 25 34 6.4 14.5 0.00 0.00 0.00 48 1012.8
20260506113157 25 16 8.0 14.5 0.00 0.00 0.00 48 1012.8
20260506112703 25 44 8.0 17.7 0.00 0.00 0.00 48 1012.8
20260506112200 25 53 6.4 14.5 0.00 0.00 0.00 48 1012.9
20260506111657 25 18 12.9 16.1 0.00 0.00 0.00 48 1013.1
20260506111200 25 343 9.7 16.1 0.00 0.00 0.00 48 1013.0
20260506110700 25 333 3.2 16.1 0.00 0.00 0.00 49 1013.1
20260506110200 25 0 6.4 14.5 0.00 0.00 0.00 48 1013.1
20260506105657 25 333 8.0 12.9 0.00 0.00 0.00 47 1013.2
20260506105157 25 11 3.2 11.3 0.00 0.00 0.00 47 1013.3
20260506104700 25 5 11.3 14.5 0.00 0.00 0.00 46 1013.3
20260506104157 26 64 6.4 16.1 0.00 0.00 0.00 45 1013.4
20260506103657 26 297 4.8 11.3 0.00 0.00 0.00 45 1013.3